Time,TemperatureF,DewpointF,PressureIn,WindDirection,WindDirectionDegrees,WindSpeedMPH,WindSpeedGustMPH,Humidity,HourlyPrecipIn,Conditions,Clouds,dailyrainin,SoftwareType,DateUTC
2013-03-25 00:04:00,25.1,20.7,30.08,NNW,338,5.3,6.7,83,0.00,,,0.00,WUHU216HW,2013-03-25 05:04:00,
2013-03-25 00:09:00,25.1,20.7,30.09,North,0,2.0,8.0,83,0.00,,,0.00,WUHU216HW,2013-03-25 05:09:00,
2013-03-25 00:14:00,25.1,20.7,30.08,NNW,338,6.0,8.0,83,0.00,,,0.00,WUHU216HW,2013-03-25 05:14:00,
2013-03-25 00:19:00,25.3,20.8,30.09,North,0,0.0,6.7,83,0.00,,,0.00,WUHU216HW,2013-03-25 05:19:00,
2013-03-25 00:24:00,25.3,20.8,30.09,North,0,2.0,6.0,83,0.00,,,0.00,WUHU216HW,2013-03-25 05:24:00,
2013-03-25 00:29:00,25.3,20.8,30.09,North,0,0.2,5.3,83,0.00,,,0.00,WUHU216HW,2013-03-25 05:29:00,
2013-03-25 00:34:00,25.3,20.8,30.09,WNW,293,0.0,2.0,83,0.00,,,0.00,WUHU216HW,2013-03-25 05:34:00,
2013-03-25 00:39:00,25.3,20.8,30.09,North,0,3.8,6.9,83,0.00,,,0.00,WUHU216HW,2013-03-25 05:39:00,
2013-03-25 00:44:00,25.3,20.8,30.09,North,0,5.8,6.9,83,0.00,,,0.00,WUHU216HW,2013-03-25 05:44:00,
2013-03-25 00:49:00,25.3,20.8,30.09,North,0,5.8,7.3,83,0.00,,,0.00,WUHU216HW,2013-03-25 05:49:00,
2013-03-25 00:54:00,25.3,20.8,30.09,NNW,338,7.8,9.1,83,0.00,,,0.00,WUHU216HW,2013-03-25 05:54:00,
2013-03-25 00:59:00,25.5,21.0,30.09,NNW,338,5.8,9.1,83,0.00,,,0.00,WUHU216HW,2013-03-25 05:59:00,
2013-03-25 01:04:00,25.5,21.0,30.09,NW,315,5.8,7.8,83,0.00,,,0.00,WUHU216HW,2013-03-25 06:04:00,
2013-03-25 01:09:00,25.5,21.3,30.09,NW,315,7.6,8.0,84,0.00,,,0.00,WUHU216HW,2013-03-25 06:09:00,
2013-03-25 01:14:00,25.5,21.3,30.09,North,0,2.0,8.0,84,0.00,,,0.00,WUHU216HW,2013-03-25 06:14:00,
2013-03-25 01:19:00,25.5,21.3,30.09,North,0,0.0,7.8,84,0.00,,,0.00,WUHU216HW,2013-03-25 06:19:00,
2013-03-25 01:24:00,25.5,21.6,30.09,NNW,338,4.0,8.7,85,0.00,,,0.00,WUHU216HW,2013-03-25 06:24:00,
2013-03-25 01:29:00,25.7,21.7,30.10,North,0,3.5,8.7,85,0.00,,,0.00,WUHU216HW,2013-03-25 06:29:00,
2013-03-25 01:34:00,25.7,21.7,30.10,North,0,5.5,6.9,85,0.00,,,0.00,WUHU216HW,2013-03-25 06:34:00,
2013-03-25 01:39:00,25.7,21.7,30.09,North,0,3.5,6.9,85,0.00,,,0.00,WUHU216HW,2013-03-25 06:39:00,
2013-03-25 01:44:00,25.8,21.9,30.10,NNW,338,2.9,8.0,85,0.00,,,0.00,WUHU216HW,2013-03-25 06:44:00,
2013-03-25 01:49:00,25.8,22.2,30.09,NNW,338,4.4,8.9,86,0.00,,,0.00,WUHU216HW,2013-03-25 06:49:00,
2013-03-25 01:54:00,25.8,21.9,30.10,North,0,1.3,10.9,85,0.00,,,0.00,WUHU216HW,2013-03-25 06:54:00,
2013-03-25 01:59:00,25.8,21.9,30.10,North,0,9.6,10.9,85,0.00,,,0.00,WUHU216HW,2013-03-25 06:59:00,
2013-03-25 02:04:00,25.8,21.9,30.10,North,0,3.8,9.6,85,0.00,,,0.00,WUHU216HW,2013-03-25 07:04:00,
2013-03-25 02:09:00,25.8,21.9,30.10,NNE,23,6.2,9.6,85,0.00,,,0.00,WUHU216HW,2013-03-25 07:09:00,
2013-03-25 02:14:00,25.7,21.7,30.10,North,0,4.9,8.7,85,0.00,,,0.00,WUHU216HW,2013-03-25 07:14:00,
2013-03-25 02:19:00,25.7,21.5,30.10,North,0,7.8,10.2,84,0.00,,,0.00,WUHU216HW,2013-03-25 07:19:00,
2013-03-25 02:24:00,25.5,21.3,30.10,North,0,5.5,10.2,84,0.00,,,0.00,WUHU216HW,2013-03-25 07:24:00,
2013-03-25 02:29:00,25.3,20.8,30.11,North,0,7.6,9.6,83,0.00,,,0.00,WUHU216HW,2013-03-25 07:29:00,
2013-03-25 02:34:00,25.3,20.8,30.11,North,0,7.3,10.0,83,0.00,,,0.00,WUHU216HW,2013-03-25 07:34:00,
2013-03-25 02:39:00,25.1,20.7,30.11,North,0,6.4,10.0,83,0.00,,,0.00,WUHU216HW,2013-03-25 07:39:00,
2013-03-25 02:44:00,24.9,20.5,30.11,North,0,7.8,10.7,83,0.00,,,0.00,WUHU216HW,2013-03-25 07:44:00,
2013-03-25 02:49:00,24.9,20.5,30.11,NNE,23,7.6,10.7,83,0.00,,,0.00,WUHU216HW,2013-03-25 07:49:00,
2013-03-25 02:54:00,24.8,20.3,30.11,North,0,5.1,9.3,83,0.00,,,0.00,WUHU216HW,2013-03-25 07:54:00,
2013-03-25 02:59:00,24.8,20.3,30.11,NNW,338,7.6,8.9,83,0.00,,,0.00,WUHU216HW,2013-03-25 07:59:00,
2013-03-25 03:04:00,24.8,20.3,30.12,NNW,338,8.0,9.8,83,0.00,,,0.00,WUHU216HW,2013-03-25 08:04:00,
2013-03-25 03:09:00,24.6,20.2,30.12,North,0,8.0,9.8,83,0.00,,,0.00,WUHU216HW,2013-03-25 08:09:00,
2013-03-25 03:14:00,24.6,20.4,30.11,North,0,6.4,8.5,84,0.00,,,0.00,WUHU216HW,2013-03-25 08:14:00,
2013-03-25 03:19:00,24.6,20.4,30.12,North,0,7.8,8.2,84,0.00,,,0.00,WUHU216HW,2013-03-25 08:19:00,
2013-03-25 03:24:00,24.6,20.4,30.11,North,0,4.9,8.5,84,0.00,,,0.00,WUHU216HW,2013-03-25 08:24:00,
2013-03-25 03:29:00,24.4,20.3,30.12,NNW,338,4.6,9.3,84,0.00,,,0.00,WUHU216HW,2013-03-25 08:29:00,
2013-03-25 03:34:00,24.4,20.3,30.11,NNW,338,1.5,9.3,84,0.00,,,0.00,WUHU216HW,2013-03-25 08:34:00,
2013-03-25 03:39:00,24.4,20.0,30.11,North,0,7.3,7.6,83,0.00,,,0.00,WUHU216HW,2013-03-25 08:39:00,
2013-03-25 03:44:00,24.4,20.0,30.11,NNW,338,6.9,7.8,83,0.00,,,0.00,WUHU216HW,2013-03-25 08:44:00,
2013-03-25 03:49:00,24.4,20.0,30.11,NW,315,5.5,7.8,83,0.00,,,0.00,WUHU216HW,2013-03-25 08:49:00,
2013-03-25 03:54:00,24.4,20.0,30.11,NNW,338,5.5,8.2,83,0.00,,,0.00,WUHU216HW,2013-03-25 08:54:00,
2013-03-25 03:59:00,24.4,19.7,30.11,North,0,6.7,8.2,82,0.00,,,0.00,WUHU216HW,2013-03-25 08:59:00,
2013-03-25 04:04:00,24.4,19.7,30.11,NW,315,3.5,8.2,82,0.00,,,0.00,WUHU216HW,2013-03-25 09:04:00,
2013-03-25 04:09:00,24.4,19.7,30.12,North,0,4.9,8.2,82,0.00,,,0.00,WUHU216HW,2013-03-25 09:09:00,
2013-03-25 04:14:00,24.4,19.7,30.11,North,0,7.8,8.2,82,0.00,,,0.00,WUHU216HW,2013-03-25 09:14:00,
2013-03-25 04:19:00,24.4,19.4,30.12,North,0,5.5,8.9,81,0.00,,,0.00,WUHU216HW,2013-03-25 09:19:00,
2013-03-25 04:24:00,24.4,19.4,30.12,North,0,4.4,8.9,81,0.00,,,0.00,WUHU216HW,2013-03-25 09:24:00,
2013-03-25 04:29:00,24.4,19.2,30.12,North,0,9.3,9.3,80,0.00,,,0.00,WUHU216HW,2013-03-25 09:29:00,
2013-03-25 04:34:00,24.4,19.2,30.12,WNW,293,5.5,9.3,80,0.00,,,0.00,WUHU216HW,2013-03-25 09:34:00,
2013-03-25 04:39:00,24.4,19.2,30.12,North,0,8.2,9.3,80,0.00,,,0.00,WUHU216HW,2013-03-25 09:39:00,
2013-03-25 04:44:00,24.4,18.9,30.12,WNW,293,7.3,8.2,79,0.00,,,0.00,WUHU216HW,2013-03-25 09:44:00,
2013-03-25 04:49:00,24.4,18.9,30.12,North,0,7.3,8.2,79,0.00,,,0.00,WUHU216HW,2013-03-25 09:49:00,
2013-03-25 04:54:00,24.2,18.4,30.12,North,0,6.4,8.0,78,0.00,,,0.00,WUHU216HW,2013-03-25 09:54:00,
2013-03-25 04:59:00,24.2,18.4,30.12,NNW,338,6.9,7.8,78,0.00,,,0.00,WUHU216HW,2013-03-25 09:59:00,
2013-03-25 05:04:00,24.0,17.9,30.12,North,0,6.7,8.7,77,0.00,,,0.00,WUHU216HW,2013-03-25 10:04:00,
2013-03-25 05:09:00,24.0,17.9,30.12,NNW,338,7.1,8.9,77,0.00,,,0.00,WUHU216HW,2013-03-25 10:09:00,
2013-03-25 05:14:00,24.0,17.5,30.13,NNW,338,6.7,9.6,76,0.00,,,0.00,WUHU216HW,2013-03-25 10:14:00,
2013-03-25 05:19:00,24.0,17.9,30.13,North,0,6.4,9.6,77,0.00,,,0.00,WUHU216HW,2013-03-25 10:19:00,
2013-03-25 05:24:00,24.2,18.0,30.13,NNW,338,6.9,9.3,77,0.00,,,0.00,WUHU216HW,2013-03-25 10:24:00,
2013-03-25 05:29:00,24.2,18.0,30.13,NNW,338,7.3,9.3,77,0.00,,,0.00,WUHU216HW,2013-03-25 10:29:00,
2013-03-25 05:34:00,24.0,17.9,30.13,North,0,6.9,9.6,77,0.00,,,0.00,WUHU216HW,2013-03-25 10:34:00,
2013-03-25 05:39:00,24.2,18.4,30.13,NNW,338,7.6,9.6,78,0.00,,,0.00,WUHU216HW,2013-03-25 10:39:00,
2013-03-25 05:44:00,24.2,18.4,30.13,NNW,338,2.9,8.0,78,0.00,,,0.00,WUHU216HW,2013-03-25 10:44:00,
2013-03-25 05:49:00,24.2,18.4,30.14,NNW,338,2.2,8.0,79,0.00,,,0.00,WUHU216HW,2013-03-25 10:49:00,
2013-03-25 05:54:00,24.2,18.7,30.14,North,0,3.8,7.8,79,0.00,,,0.00,WUHU216HW,2013-03-25 10:54:00,
2013-03-25 05:59:00,24.2,18.7,30.14,NNW,338,8.2,8.2,79,0.00,,,0.00,WUHU216HW,2013-03-25 10:59:00,
2013-03-25 06:04:00,24.4,18.5,30.14,North,0,3.1,8.2,78,0.00,,,0.00,WUHU216HW,2013-03-25 11:04:00,
2013-03-25 06:09:00,24.4,18.9,30.14,NNW,338,1.7,8.2,79,0.00,,,0.00,WUHU216HW,2013-03-25 11:09:00,
2013-03-25 06:14:00,24.4,18.5,30.14,North,0,4.9,7.1,78,0.00,,,0.00,WUHU216HW,2013-03-25 11:14:00,
2013-03-25 06:19:00,24.2,18.4,30.14,NNW,338,2.9,7.8,78,0.00,,,0.00,WUHU216HW,2013-03-25 11:19:00,
2013-03-25 06:24:00,24.2,18.7,30.14,North,0,6.4,7.8,79,0.00,,,0.00,WUHU216HW,2013-03-25 11:24:00,
2013-03-25 06:29:00,24.2,18.7,30.14,North,0,1.7,6.7,79,0.00,,,0.00,WUHU216HW,2013-03-25 11:29:00,
2013-03-25 06:34:00,24.4,18.9,30.14,North,0,6.0,6.9,79,0.00,,,0.00,WUHU216HW,2013-03-25 11:34:00,
2013-03-25 06:39:00,24.2,19.0,30.14,NNW,338,6.4,6.9,80,0.00,,,0.00,WUHU216HW,2013-03-25 11:39:00,
2013-03-25 06:44:00,24.2,19.0,30.15,North,0,6.7,7.8,80,0.00,,,0.00,WUHU216HW,2013-03-25 11:44:00,
2013-03-25 06:49:00,24.2,19.3,30.15,NNW,338,0.8,7.8,81,0.00,,,0.00,WUHU216HW,2013-03-25 11:49:00,
2013-03-25 06:54:00,24.2,19.5,30.15,NNW,338,4.4,6.7,82,0.00,,,0.00,WUHU216HW,2013-03-25 11:54:00,
2013-03-25 06:59:00,24.0,19.4,30.15,NW,315,6.7,8.5,82,0.00,,,0.00,WUHU216HW,2013-03-25 11:59:00,
2013-03-25 07:04:00,23.9,19.4,30.15,NNW,338,5.3,8.5,83,0.00,,,0.00,WUHU216HW,2013-03-25 12:04:00,
2013-03-25 07:09:00,23.9,19.4,30.15,North,0,3.1,7.8,83,0.00,,,0.00,WUHU216HW,2013-03-25 12:09:00,
2013-03-25 07:14:00,23.7,18.7,30.15,North,0,8.2,9.1,81,0.00,,,0.00,WUHU216HW,2013-03-25 12:14:00,
2013-03-25 07:19:00,23.7,18.7,30.16,NNW,338,8.2,9.1,81,0.00,,,0.00,WUHU216HW,2013-03-25 12:19:00,
2013-03-25 07:24:00,23.7,19.0,30.15,NNW,338,7.1,9.8,82,0.00,,,0.00,WUHU216HW,2013-03-25 12:24:00,
2013-03-25 07:29:00,23.7,19.0,30.16,NNW,338,4.6,9.8,82,0.00,,,0.00,WUHU216HW,2013-03-25 12:29:00,
2013-03-25 07:34:00,23.5,18.8,30.16,North,0,7.6,7.6,82,0.00,,,0.00,WUHU216HW,2013-03-25 12:34:00,
2013-03-25 07:39:00,23.5,18.5,30.16,North,0,8.9,8.9,81,0.00,,,0.00,WUHU216HW,2013-03-25 12:39:00,
2013-03-25 07:44:00,23.5,18.8,30.16,NNW,338,6.7,8.9,82,0.00,,,0.00,WUHU216HW,2013-03-25 12:44:00,
2013-03-25 07:49:00,23.5,18.8,30.16,North,0,6.4,8.9,82,0.00,,,0.00,WUHU216HW,2013-03-25 12:49:00,
2013-03-25 07:54:00,23.5,18.8,30.16,NW,315,5.5,8.2,82,0.00,,,0.00,WUHU216HW,2013-03-25 12:54:00,
2013-03-25 07:59:00,23.5,18.5,30.17,NNW,338,10.0,10.0,81,0.00,,,0.00,WUHU216HW,2013-03-25 12:59:00,
2013-03-25 08:04:00,23.5,18.5,30.16,NW,315,8.2,10.0,81,0.00,,,0.00,WUHU216HW,2013-03-25 13:04:00,
2013-03-25 08:09:00,23.5,18.5,30.17,North,0,6.4,10.0,81,0.00,,,0.00,WUHU216HW,2013-03-25 13:09:00,
2013-03-25 08:14:00,23.7,18.7,30.17,NNW,338,7.3,8.0,81,0.00,,,0.00,WUHU216HW,2013-03-25 13:14:00,
2013-03-25 08:19:00,23.7,18.7,30.17,NNW,338,10.2,10.2,81,0.00,,,0.00,WUHU216HW,2013-03-25 13:19:00,
2013-03-25 08:24:00,23.7,18.7,30.17,NW,315,5.5,10.2,81,0.00,,,0.00,WUHU216HW,2013-03-25 13:24:00,
2013-03-25 08:29:00,23.7,18.7,30.18,NNW,338,8.2,10.2,81,0.00,,,0.00,WUHU216HW,2013-03-25 13:29:00,
2013-03-25 08:34:00,23.9,19.2,30.18,NNW,338,8.2,8.5,82,0.00,,,0.00,WUHU216HW,2013-03-25 13:34:00,
2013-03-25 08:39:00,24.2,19.5,30.18,North,0,7.1,8.5,82,0.00,,,0.00,WUHU216HW,2013-03-25 13:39:00,
2013-03-25 08:44:00,24.0,19.1,30.18,North,0,6.0,8.9,81,0.00,,,0.00,WUHU216HW,2013-03-25 13:44:00,
2013-03-25 08:49:00,24.2,19.0,30.17,NNE,23,5.8,9.6,80,0.00,,,0.00,WUHU216HW,2013-03-25 13:49:00,
2013-03-25 08:54:00,24.4,19.2,30.18,NW,315,9.3,9.6,80,0.00,,,0.00,WUHU216HW,2013-03-25 13:54:00,
2013-03-25 09:00:00,24.4,19.4,30.19,North,0,8.7,9.3,81,0.00,,,0.00,WUHU216HW,2013-03-25 14:00:00,
2013-03-25 09:05:00,24.4,19.4,30.19,North,0,7.8,9.3,81,0.00,,,0.00,WUHU216HW,2013-03-25 14:05:00,
2013-03-25 09:10:00,24.4,19.2,30.19,North,0,4.6,9.3,80,0.00,,,0.00,WUHU216HW,2013-03-25 14:10:00,
2013-03-25 09:15:00,24.4,19.2,30.19,NE,45,8.2,9.3,80,0.00,,,0.00,WUHU216HW,2013-03-25 14:15:00,
2013-03-25 09:20:00,24.6,19.4,30.19,NW,315,7.1,9.6,80,0.00,,,0.00,WUHU216HW,2013-03-25 14:20:00,
2013-03-25 09:25:00,24.6,19.4,30.19,NNW,338,8.7,9.6,80,0.00,,,0.00,WUHU216HW,2013-03-25 14:25:00,
2013-03-25 09:30:00,24.9,19.4,30.19,NNW,338,6.9,8.7,79,0.00,,,0.00,WUHU216HW,2013-03-25 14:30:00,
2013-03-25 09:35:00,24.9,19.4,30.19,NNW,338,5.1,8.9,79,0.00,,,0.00,WUHU216HW,2013-03-25 14:35:00,
2013-03-25 09:40:00,24.9,19.4,30.19,North,0,7.1,9.3,79,0.00,,,0.00,WUHU216HW,2013-03-25 14:40:00,
2013-03-25 09:45:00,25.1,19.5,30.20,North,0,6.0,9.3,79,0.00,,,0.00,WUHU216HW,2013-03-25 14:45:00,
2013-03-25 09:50:00,25.3,20.0,30.20,NNW,338,5.3,9.8,80,0.00,,,0.00,WUHU216HW,2013-03-25 14:50:00,
2013-03-25 09:55:00,25.3,20.0,30.20,North,0,8.2,9.8,80,0.00,,,0.00,WUHU216HW,2013-03-25 14:55:00,
2013-03-25 10:00:00,25.5,20.2,30.20,North,0,6.7,8.9,80,0.00,,,0.00,WUHU216HW,2013-03-25 15:00:00,
2013-03-25 10:05:00,25.5,20.2,30.20,NNW,338,5.5,10.5,80,0.00,,,0.00,WUHU216HW,2013-03-25 15:05:00,
2013-03-25 10:10:00,25.8,20.5,30.20,North,0,4.2,10.5,80,0.00,,,0.00,WUHU216HW,2013-03-25 15:10:00,
2013-03-25 10:15:00,25.8,20.5,30.20,North,0,5.5,8.5,80,0.00,,,0.00,WUHU216HW,2013-03-25 15:15:00,
2013-03-25 10:20:00,25.8,20.2,30.20,North,0,6.9,11.1,79,0.00,,,0.00,WUHU216HW,2013-03-25 15:20:00,
2013-03-25 10:25:00,25.8,20.2,30.20,NNW,338,7.6,11.1,79,0.00,,,0.00,WUHU216HW,2013-03-25 15:25:00,
2013-03-25 10:30:00,26.2,20.5,30.20,North,0,5.5,10.0,79,0.00,,,0.00,WUHU216HW,2013-03-25 15:30:00,
2013-03-25 10:35:00,26.2,20.2,30.20,North,0,7.6,12.0,78,0.00,,,0.00,WUHU216HW,2013-03-25 15:35:00,
2013-03-25 10:40:00,26.4,20.4,30.21,North,0,5.5,12.0,78,0.00,,,0.00,WUHU216HW,2013-03-25 15:40:00,
2013-03-25 10:45:00,26.7,21.0,30.21,North,0,1.1,9.6,79,0.00,,,0.00,WUHU216HW,2013-03-25 15:45:00,
2013-03-25 10:50:00,27.3,21.6,30.21,NNW,338,4.0,7.8,79,0.00,,,0.00,WUHU216HW,2013-03-25 15:50:00,
2013-03-25 10:55:00,27.6,21.3,30.21,NW,315,7.8,7.8,77,0.00,,,0.00,WUHU216HW,2013-03-25 15:55:00,
2013-03-25 11:00:00,27.5,20.8,30.21,NNW,338,8.5,9.1,76,0.00,,,0.00,WUHU216HW,2013-03-25 16:00:00,
2013-03-25 11:05:00,27.6,21.0,30.22,North,0,5.1,9.1,76,0.00,,,0.00,WUHU216HW,2013-03-25 16:05:00,
2013-03-25 11:10:00,28.0,21.1,30.21,NNE,23,8.5,8.7,75,0.00,,,0.00,WUHU216HW,2013-03-25 16:10:00,
2013-03-25 11:15:00,28.2,20.9,30.22,North,0,7.3,10.7,74,0.00,,,0.00,WUHU216HW,2013-03-25 16:15:00,
2013-03-25 11:20:00,28.9,21.9,30.22,North,0,6.0,10.7,75,0.00,,,0.00,WUHU216HW,2013-03-25 16:20:00,
2013-03-25 11:25:00,29.1,21.8,30.23,North,0,6.2,7.8,74,0.00,,,0.00,WUHU216HW,2013-03-25 16:25:00,
2013-03-25 11:30:00,29.3,21.6,30.22,North,0,3.5,7.6,73,0.00,,,0.00,WUHU216HW,2013-03-25 16:30:00,
2013-03-25 11:35:00,29.3,21.3,30.23,North,0,8.0,8.2,72,0.00,,,0.00,WUHU216HW,2013-03-25 16:35:00,
2013-03-25 11:40:00,29.1,21.2,30.23,NNW,338,5.5,9.6,72,0.00,,,0.00,WUHU216HW,2013-03-25 16:40:00,
2013-03-25 11:45:00,29.1,21.2,30.23,North,0,1.7,9.6,72,0.00,,,0.00,WUHU216HW,2013-03-25 16:45:00,
2013-03-25 11:50:00,29.3,21.0,30.23,North,0,6.7,8.9,71,0.00,,,0.00,WUHU216HW,2013-03-25 16:50:00,
2013-03-25 11:55:00,29.3,21.0,30.23,North,0,9.1,9.1,71,0.00,,,0.00,WUHU216HW,2013-03-25 16:55:00,
2013-03-25 12:00:00,29.1,21.8,30.23,North,0,8.7,9.1,74,0.00,,,0.00,WUHU216HW,2013-03-25 17:00:00,
2013-03-25 12:05:00,28.9,21.3,30.23,North,0,9.3,9.6,73,0.00,,,0.00,WUHU216HW,2013-03-25 17:05:00,
2013-03-25 12:10:00,28.9,21.6,30.24,North,0,7.3,10.5,74,0.00,,,0.00,WUHU216HW,2013-03-25 17:10:00,
2013-03-25 12:15:00,28.7,21.5,30.24,NW,315,2.6,10.5,74,0.00,,,0.00,WUHU216HW,2013-03-25 17:15:00,
2013-03-25 12:20:00,28.5,21.6,30.23,North,0,6.0,9.6,75,0.00,,,0.00,WUHU216HW,2013-03-25 17:20:00,
2013-03-25 12:25:00,28.5,21.9,30.24,NW,315,4.4,9.6,76,0.00,,,0.00,WUHU216HW,2013-03-25 17:25:00,
2013-03-25 12:30:00,28.4,21.7,30.24,North,0,0.0,8.7,76,0.00,,,0.00,WUHU216HW,2013-03-25 17:30:00,
2013-03-25 12:35:00,28.9,22.2,30.23,NW,315,7.3,9.6,76,0.00,,,0.00,WUHU216HW,2013-03-25 17:35:00,
2013-03-25 12:40:00,28.9,21.9,30.23,NNW,338,4.6,9.6,75,0.00,,,0.00,WUHU216HW,2013-03-25 17:40:00,
2013-03-25 12:45:00,28.9,21.6,30.24,North,0,7.1,8.7,74,0.00,,,0.00,WUHU216HW,2013-03-25 17:45:00,
2013-03-25 12:50:00,28.9,21.6,30.24,NNW,338,5.8,10.0,74,0.00,,,0.00,WUHU216HW,2013-03-25 17:50:00,
2013-03-25 12:55:00,29.3,22.0,30.24,North,0,5.1,10.0,74,0.00,,,0.00,WUHU216HW,2013-03-25 17:55:00,
2013-03-25 13:00:00,29.4,21.8,30.24,North,0,7.8,8.7,73,0.00,,,0.00,WUHU216HW,2013-03-25 18:00:00,
2013-03-25 13:05:00,29.4,21.2,30.23,North,0,8.2,10.5,71,0.00,,,0.00,WUHU216HW,2013-03-25 18:05:00,
2013-03-25 13:10:00,29.8,22.1,30.23,NNE,23,7.6,10.5,73,0.00,,,0.00,WUHU216HW,2013-03-25 18:10:00,
2013-03-25 13:15:00,30.0,21.7,30.23,North,0,5.3,9.1,71,0.00,,,0.00,WUHU216HW,2013-03-25 18:15:00,
2013-03-25 13:20:00,30.3,21.3,30.24,North,0,7.3,9.6,69,0.00,,,0.00,WUHU216HW,2013-03-25 18:20:00,
2013-03-25 13:25:00,30.3,21.0,30.24,North,0,6.0,9.6,68,0.00,,,0.00,WUHU216HW,2013-03-25 18:25:00,
2013-03-25 13:30:00,30.5,21.2,30.23,North,0,7.1,10.7,68,0.00,,,0.00,WUHU216HW,2013-03-25 18:30:00,
2013-03-25 13:35:00,30.5,21.2,30.23,North,0,5.1,10.7,68,0.00,,,0.00,WUHU216HW,2013-03-25 18:35:00,
2013-03-25 13:40:00,30.7,21.3,30.24,North,0,6.7,9.1,68,0.00,,,0.00,WUHU216HW,2013-03-25 18:40:00,
2013-03-25 13:45:00,31.2,21.5,30.24,NW,315,8.7,9.1,67,0.00,,,0.00,WUHU216HW,2013-03-25 18:45:00,
2013-03-25 13:50:00,31.2,21.5,30.24,NNW,338,7.8,8.7,67,0.00,,,0.00,WUHU216HW,2013-03-25 18:50:00,
2013-03-25 13:55:00,31.2,21.2,30.23,NNW,338,8.0,9.6,66,0.00,,,0.00,WUHU216HW,2013-03-25 18:55:00,
2013-03-25 14:00:00,31.4,21.3,30.23,North,0,7.1,9.6,66,0.00,,,0.00,WUHU216HW,2013-03-25 19:00:00,
2013-03-25 14:05:00,31.6,21.9,30.23,North,0,8.5,9.3,67,0.00,,,0.00,WUHU216HW,2013-03-25 19:05:00,
2013-03-25 14:10:00,31.6,21.9,30.23,North,0,4.6,10.2,67,0.00,,,0.00,WUHU216HW,2013-03-25 19:10:00,
2013-03-25 14:15:00,31.6,20.8,30.24,North,0,7.8,10.2,64,0.00,,,0.00,WUHU216HW,2013-03-25 19:15:00,
2013-03-25 14:20:00,31.4,21.0,30.23,North,0,8.5,10.2,65,0.00,,,0.00,WUHU216HW,2013-03-25 19:20:00,
2013-03-25 14:25:00,31.6,20.4,30.24,NNW,338,8.9,10.2,63,0.00,,,0.00,WUHU216HW,2013-03-25 19:25:00,
2013-03-25 14:30:00,31.4,20.3,30.24,North,0,6.9,11.4,64,0.00,,,0.00,WUHU216HW,2013-03-25 19:30:00,
2013-03-25 14:35:00,31.4,21.0,30.23,NNW,338,2.0,11.4,65,0.00,,,0.00,WUHU216HW,2013-03-25 19:35:00,
2013-03-25 14:40:00,31.6,21.5,30.24,NNW,338,3.1,8.7,66,0.00,,,0.00,WUHU216HW,2013-03-25 19:40:00,
2013-03-25 14:45:00,31.6,21.2,30.24,NNW,338,5.1,8.2,65,0.00,,,0.00,WUHU216HW,2013-03-25 19:45:00,
2013-03-25 14:50:00,31.6,21.5,30.24,North,0,3.8,8.2,66,0.00,,,0.00,WUHU216HW,2013-03-25 19:50:00,
2013-03-25 14:55:00,31.2,21.5,30.24,NNW,338,6.0,7.8,67,0.00,,,0.00,WUHU216HW,2013-03-25 19:55:00,
2013-03-25 15:00:00,31.1,21.3,30.24,NNW,338,7.6,9.1,67,0.00,,,0.00,WUHU216HW,2013-03-25 20:00:00,
2013-03-25 15:05:00,30.9,21.2,30.24,NW,315,7.8,9.1,67,0.00,,,0.00,WUHU216HW,2013-03-25 20:05:00,
2013-03-25 15:10:00,30.5,21.2,30.23,North,0,4.4,8.7,68,0.00,,,0.00,WUHU216HW,2013-03-25 20:10:00,
2013-03-25 15:15:00,30.7,21.7,30.24,North,0,6.7,9.1,69,0.00,,,0.00,WUHU216HW,2013-03-25 20:15:00,
2013-03-25 15:20:00,30.3,21.7,30.24,North,0,5.8,9.1,70,0.00,,,0.00,WUHU216HW,2013-03-25 20:20:00,
2013-03-25 15:25:00,30.3,21.7,30.24,North,0,9.1,9.1,70,0.00,,,0.00,WUHU216HW,2013-03-25 20:25:00,
2013-03-25 15:30:00,30.3,21.7,30.24,North,0,6.7,9.1,70,0.00,,,0.00,WUHU216HW,2013-03-25 20:30:00,
2013-03-25 15:35:00,30.7,22.4,30.24,North,0,3.5,8.2,71,0.00,,,0.00,WUHU216HW,2013-03-25 20:35:00,
2013-03-25 15:40:00,31.1,22.4,30.24,WNW,293,5.8,7.6,70,0.00,,,0.00,WUHU216HW,2013-03-25 20:40:00,
2013-03-25 15:45:00,31.4,22.1,30.24,North,0,4.0,8.5,68,0.00,,,0.00,WUHU216HW,2013-03-25 20:45:00,
2013-03-25 15:50:00,31.6,21.9,30.24,North,0,6.0,8.5,67,0.00,,,0.00,WUHU216HW,2013-03-25 20:50:00,
2013-03-25 15:55:00,31.4,21.7,30.24,NNW,338,3.5,8.9,67,0.00,,,0.00,WUHU216HW,2013-03-25 20:55:00,
2013-03-25 16:00:00,31.2,21.5,30.24,North,0,6.4,8.9,67,0.00,,,0.00,WUHU216HW,2013-03-25 21:00:00,
2013-03-25 16:05:00,30.9,21.5,30.24,North,0,0.6,8.9,68,0.00,,,0.00,WUHU216HW,2013-03-25 21:05:00,
2013-03-25 16:10:00,30.9,21.9,30.25,North,0,7.8,9.1,69,0.00,,,0.00,WUHU216HW,2013-03-25 21:10:00,
2013-03-25 16:15:00,30.3,21.7,30.25,North,0,4.4,9.1,70,0.00,,,0.00,WUHU216HW,2013-03-25 21:15:00,
2013-03-25 16:20:00,30.3,22.0,30.24,NW,315,6.0,8.5,71,0.00,,,0.00,WUHU216HW,2013-03-25 21:20:00,
2013-03-25 16:25:00,30.3,22.3,30.25,North,0,6.2,8.5,72,0.00,,,0.00,WUHU216HW,2013-03-25 21:25:00,
2013-03-25 16:30:00,30.0,22.3,30.25,North,0,4.4,7.6,73,0.00,,,0.00,WUHU216HW,2013-03-25 21:30:00,
2013-03-25 16:35:00,30.0,22.3,30.25,NNW,338,6.0,7.8,73,0.00,,,0.00,WUHU216HW,2013-03-25 21:35:00,
2013-03-25 16:40:00,29.8,22.5,30.25,NNW,338,4.6,7.8,74,0.00,,,0.00,WUHU216HW,2013-03-25 21:40:00,
2013-03-25 16:45:00,29.4,22.1,30.25,NNW,338,4.0,7.1,74,0.00,,,0.00,WUHU216HW,2013-03-25 21:45:00,
2013-03-25 16:50:00,29.4,22.1,30.25,NW,315,3.5,8.2,74,0.00,,,0.00,WUHU216HW,2013-03-25 21:50:00,
2013-03-25 16:55:00,29.3,22.3,30.25,NNW,338,1.5,8.2,75,0.00,,,0.00,WUHU216HW,2013-03-25 21:55:00,
2013-03-25 17:00:00,29.3,22.3,30.25,NNW,338,0.8,7.1,75,0.00,,,0.00,WUHU216HW,2013-03-25 22:00:00,
2013-03-25 17:05:00,29.3,22.3,30.25,North,0,0.0,7.1,77,0.00,,,0.00,WUHU216HW,2013-03-25 22:05:00,
2013-03-25 17:10:00,29.3,22.3,30.25,NNW,338,4.0,10.2,75,0.00,,,0.00,WUHU216HW,2013-03-25 22:10:00,
2013-03-25 17:15:00,29.1,22.1,30.25,North,0,7.8,10.2,75,0.00,,,0.00,WUHU216HW,2013-03-25 22:15:00,
2013-03-25 17:20:00,29.1,22.1,30.26,NNW,338,7.6,7.8,75,0.00,,,0.00,WUHU216HW,2013-03-25 22:20:00,
2013-03-25 17:25:00,28.7,22.1,30.26,NNW,338,7.3,7.8,76,0.00,,,0.00,WUHU216HW,2013-03-25 22:25:00,
2013-03-25 17:30:00,28.5,21.9,30.26,NW,315,0.6,7.6,76,0.00,,,0.00,WUHU216HW,2013-03-25 22:30:00,
2013-03-25 17:35:00,28.5,21.9,30.26,North,0,2.4,6.9,76,0.00,,,0.00,WUHU216HW,2013-03-25 22:35:00,
2013-03-25 17:40:00,28.4,21.7,30.26,North,0,2.9,6.9,76,0.00,,,0.00,WUHU216HW,2013-03-25 22:40:00,
2013-03-25 17:45:00,28.5,21.9,30.26,NNW,338,4.9,6.4,76,0.00,,,0.00,WUHU216HW,2013-03-25 22:45:00,
2013-03-25 17:50:00,28.4,21.7,30.26,NW,315,2.4,6.7,76,0.00,,,0.00,WUHU216HW,2013-03-25 22:50:00,
2013-03-25 17:55:00,28.2,21.5,30.26,NNW,338,6.7,8.7,76,0.00,,,0.00,WUHU216HW,2013-03-25 22:55:00,
2013-03-25 18:00:00,28.2,21.9,30.26,NNW,338,6.4,8.7,77,0.00,,,0.00,WUHU216HW,2013-03-25 23:00:00,
2013-03-25 18:05:00,28.2,21.9,30.26,NNW,338,1.3,7.3,77,0.00,,,0.00,WUHU216HW,2013-03-25 23:05:00,
2013-03-25 18:10:00,28.0,22.0,30.27,NW,315,1.1,7.3,78,0.00,,,0.00,WUHU216HW,2013-03-25 23:10:00,
2013-03-25 18:15:00,28.0,22.0,30.27,NNW,338,3.1,7.1,78,0.00,,,0.00,WUHU216HW,2013-03-25 23:15:00,
2013-03-25 18:20:00,28.0,22.0,30.27,North,0,0.0,6.9,78,0.00,,,0.00,WUHU216HW,2013-03-25 23:20:00,
2013-03-25 18:25:00,28.0,21.7,30.27,North,0,2.4,8.2,77,0.00,,,0.00,WUHU216HW,2013-03-25 23:25:00,
2013-03-25 18:30:00,28.0,21.7,30.27,NNW,338,3.1,8.2,78,0.00,,,0.00,WUHU216HW,2013-03-25 23:30:00,
2013-03-25 18:35:00,28.0,21.7,30.27,NNW,338,2.4,6.9,77,0.00,,,0.00,WUHU216HW,2013-03-25 23:35:00,
2013-03-25 18:40:00,28.0,22.0,30.27,NNW,338,5.1,6.9,78,0.00,,,0.00,WUHU216HW,2013-03-25 23:40:00,
2013-03-25 18:45:00,27.8,21.8,30.27,North,0,0.8,5.1,78,0.00,,,0.00,WUHU216HW,2013-03-25 23:45:00,
2013-03-25 18:50:00,27.6,21.6,30.27,North,0,3.5,5.1,78,0.00,,,0.00,WUHU216HW,2013-03-25 23:50:00,
2013-03-25 18:55:00,27.6,21.6,30.27,NW,315,1.5,3.5,78,0.00,,,0.00,WUHU216HW,2013-03-25 23:55:00,
2013-03-25 19:00:00,27.5,21.7,30.27,NNW,338,0.0,5.8,79,0.00,,,0.00,WUHU216HW,2013-03-26 00:00:00,
2013-03-25 19:05:00,27.5,21.7,30.27,North,0,0.0,5.8,79,0.00,,,0.00,WUHU216HW,2013-03-26 00:05:00,
2013-03-25 19:10:00,27.5,21.7,30.28,North,0,0.0,0.4,79,0.00,,,0.00,WUHU216HW,2013-03-26 00:10:00,
2013-03-25 19:15:00,27.5,21.7,30.28,NW,315,2.0,6.2,79,0.00,,,0.00,WUHU216HW,2013-03-26 00:15:00,
2013-03-25 19:20:00,27.3,21.3,30.28,NNW,338,0.0,6.2,78,0.00,,,0.00,WUHU216HW,2013-03-26 00:20:00,
2013-03-25 19:25:00,27.3,21.6,30.29,North,0,1.7,4.4,79,0.00,,,0.00,WUHU216HW,2013-03-26 00:25:00,
2013-03-25 19:30:00,27.3,21.6,30.28,North,0,4.2,6.7,79,0.00,,,0.00,WUHU216HW,2013-03-26 00:30:00,
2013-03-25 19:35:00,27.1,21.4,30.28,North,0,1.5,6.7,79,0.00,,,0.00,WUHU216HW,2013-03-26 00:35:00,
2013-03-25 19:40:00,27.1,21.4,30.29,North,0,0.6,6.0,79,0.00,,,0.00,WUHU216HW,2013-03-26 00:40:00,
2013-03-25 19:45:00,26.9,21.2,30.29,North,0,1.3,6.0,79,0.00,,,0.00,WUHU216HW,2013-03-26 00:45:00,
2013-03-25 19:50:00,26.9,21.2,30.29,NNW,338,0.6,1.3,79,0.00,,,0.00,WUHU216HW,2013-03-26 00:50:00,
2013-03-25 19:55:00,26.9,21.2,30.29,North,0,0.4,1.3,79,0.00,,,0.00,WUHU216HW,2013-03-26 00:55:00,
2013-03-25 20:00:00,26.7,21.0,30.29,North,0,0.0,1.5,79,0.00,,,0.00,WUHU216HW,2013-03-26 01:00:00,
2013-03-25 20:05:00,26.7,21.0,30.29,NNW,338,4.0,4.0,79,0.00,,,0.00,WUHU216HW,2013-03-26 01:05:00,
2013-03-25 20:10:00,26.7,20.7,30.29,NNW,338,0.6,4.9,78,0.00,,,0.00,WUHU216HW,2013-03-26 01:10:00,
2013-03-25 20:15:00,26.6,20.5,30.29,North,0,3.8,4.9,78,0.00,,,0.00,WUHU216HW,2013-03-26 01:15:00,
2013-03-25 20:21:00,26.4,20.1,30.29,North,0,0.6,4.6,77,0.00,,,0.00,WUHU216HW,2013-03-26 01:21:00,
2013-03-25 20:26:00,26.4,20.1,30.29,NW,315,2.0,4.6,78,0.00,,,0.00,WUHU216HW,2013-03-26 01:26:00,
2013-03-25 20:31:00,26.4,20.1,30.29,North,0,0.0,2.0,78,0.00,,,0.00,WUHU216HW,2013-03-26 01:31:00,
2013-03-25 20:36:00,26.4,20.1,30.29,NNW,338,6.4,6.4,77,0.00,,,0.00,WUHU216HW,2013-03-26 01:36:00,
2013-03-25 20:41:00,26.4,20.1,30.29,North,0,0.6,6.4,77,0.00,,,0.00,WUHU216HW,2013-03-26 01:41:00,
2013-03-25 20:46:00,26.4,20.1,30.29,North,0,0.0,6.4,77,0.00,,,0.00,WUHU216HW,2013-03-26 01:46:00,
2013-03-25 20:51:00,26.4,20.1,30.29,NW,315,3.8,4.9,77,0.00,,,0.00,WUHU216HW,2013-03-26 01:51:00,
2013-03-25 20:56:00,26.4,20.1,30.29,North,0,0.0,4.9,77,0.00,,,0.00,WUHU216HW,2013-03-26 01:56:00,
2013-03-25 21:01:00,26.2,19.9,30.30,NNW,338,0.0,3.8,77,0.00,,,0.00,WUHU216HW,2013-03-26 02:01:00,
2013-03-25 21:06:00,26.2,19.9,30.30,NNW,338,4.2,4.2,77,0.00,,,0.00,WUHU216HW,2013-03-26 02:06:00,
2013-03-25 21:11:00,26.2,19.9,30.30,NNW,338,1.7,4.2,76,0.00,,,0.00,WUHU216HW,2013-03-26 02:11:00,
2013-03-25 21:16:00,26.2,19.9,30.30,NNW,338,0.0,4.2,77,0.00,,,0.00,WUHU216HW,2013-03-26 02:16:00,
2013-03-25 21:21:00,26.2,19.6,30.30,North,0,0.4,6.0,76,0.00,,,0.00,WUHU216HW,2013-03-26 02:21:00,
2013-03-25 21:26:00,26.2,19.6,30.30,North,0,0.4,6.0,76,0.00,,,0.00,WUHU216HW,2013-03-26 02:26:00,
2013-03-25 21:31:00,26.2,19.6,30.30,North,0,0.0,0.4,77,0.00,,,0.00,WUHU216HW,2013-03-26 02:31:00,
2013-03-25 21:36:00,26.2,19.9,30.30,NNW,338,2.4,7.1,77,0.00,,,0.00,WUHU216HW,2013-03-26 02:36:00,
2013-03-25 21:41:00,26.2,19.9,30.30,North,0,0.0,7.1,77,0.00,,,0.00,WUHU216HW,2013-03-26 02:41:00,
2013-03-25 21:46:00,26.2,19.9,30.31,North,0,0.0,2.4,77,0.00,,,0.00,WUHU216HW,2013-03-26 02:46:00,
2013-03-25 21:51:00,26.2,19.9,30.31,North,0,0.0,0.0,77,0.00,,,0.00,WUHU216HW,2013-03-26 02:51:00,
2013-03-25 21:56:00,26.2,19.9,30.31,NNW,338,0.0,2.6,77,0.00,,,0.00,WUHU216HW,2013-03-26 02:56:00,
2013-03-25 22:01:00,26.2,19.9,30.31,NNW,338,1.1,2.6,77,0.00,,,0.00,WUHU216HW,2013-03-26 03:01:00,
2013-03-25 22:06:00,26.2,19.9,30.31,North,0,3.5,3.5,77,0.00,,,0.00,WUHU216HW,2013-03-26 03:06:00,
2013-03-25 22:11:00,26.2,19.9,30.31,North,0,0.4,3.5,77,0.00,,,0.00,WUHU216HW,2013-03-26 03:11:00,
2013-03-25 22:17:00,26.2,19.9,30.31,NNW,338,0.0,3.8,77,0.00,,,0.00,WUHU216HW,2013-03-26 03:17:00,
2013-03-25 22:22:00,26.2,19.9,30.31,NNW,338,0.0,3.8,78,0.00,,,0.00,WUHU216HW,2013-03-26 03:22:00,
2013-03-25 22:27:00,26.2,20.2,30.31,WNW,293,0.0,0.0,78,0.00,,,0.00,WUHU216HW,2013-03-26 03:27:00,
2013-03-25 22:32:00,25.8,19.9,30.31,North,0,0.0,0.0,78,0.00,,,0.00,WUHU216HW,2013-03-26 03:32:00,
2013-03-25 22:37:00,25.8,19.9,30.31,North,0,0.0,0.0,78,0.00,,,0.00,WUHU216HW,2013-03-26 03:37:00,
2013-03-25 22:42:00,25.8,19.9,30.31,North,0,0.0,0.0,78,0.00,,,0.00,WUHU216HW,2013-03-26 03:42:00,
2013-03-25 22:47:00,25.8,19.9,30.31,NNW,338,0.0,0.0,78,0.00,,,0.00,WUHU216HW,2013-03-26 03:47:00,
2013-03-25 22:52:00,25.8,19.9,30.31,North,0,0.0,0.2,78,0.00,,,0.00,WUHU216HW,2013-03-26 03:52:00,
2013-03-25 22:57:00,25.8,19.9,30.31,North,0,0.0,0.2,78,0.00,,,0.00,WUHU216HW,2013-03-26 03:57:00,
2013-03-25 23:02:00,25.8,19.9,30.31,NNW,338,0.0,0.0,78,0.00,,,0.00,WUHU216HW,2013-03-26 04:02:00,
2013-03-25 23:07:00,25.8,19.9,30.31,WNW,293,0.0,0.0,79,0.00,,,0.00,WUHU216HW,2013-03-26 04:07:00,
2013-03-25 23:09:00,25.8,19.9,30.31,WNW,293,0.0,0.0,79,0.00,,,0.00,WUHU216HW,2013-03-26 04:09:00,
2013-03-25 23:14:00,25.8,19.9,30.31,NNW,338,0.0,0.0,79,0.00,,,0.00,WUHU216HW,2013-03-26 04:14:00,
2013-03-25 23:19:00,25.8,19.9,30.31,NNW,338,0.0,0.0,79,0.00,,,0.00,WUHU216HW,2013-03-26 04:19:00,
2013-03-25 23:22:00,25.8,19.9,30.32,NNW,338,0.0,0.0,79,0.00,,,0.00,WUHU216HW,2013-03-26 04:22:00,
2013-03-25 23:27:00,25.7,20.0,30.32,NNW,338,0.0,0.8,79,0.00,,,0.00,WUHU216HW,2013-03-26 04:27:00,
2013-03-25 23:32:00,25.5,19.9,30.32,NNW,338,0.0,0.8,79,0.00,,,0.00,WUHU216HW,2013-03-26 04:32:00,
2013-03-25 23:37:00,25.5,19.9,30.32,NNW,338,3.8,3.8,78,0.00,,,0.00,WUHU216HW,2013-03-26 04:37:00,
2013-03-25 23:42:00,25.3,19.4,30.32,WNW,293,0.0,4.0,78,0.00,,,0.00,WUHU216HW,2013-03-26 04:42:00,
2013-03-25 23:47:00,25.1,18.9,30.32,NNW,338,0.0,4.0,77,0.00,,,0.00,WUHU216HW,2013-03-26 04:47:00,
2013-03-25 23:52:00,24.9,18.7,30.32,NNW,338,0.0,0.0,77,0.00,,,0.00,WUHU216HW,2013-03-26 04:52:00,
2013-03-25 23:57:00,24.8,18.6,30.32,North,0,0.0,0.8,77,0.00,,,0.00,WUHU216HW,2013-03-26 04:57:00,